• Join FlightAware (Why Join?)
  • Login
  • US Flag 
01:58PM EST


 

Airport Tracker/Info


-or-


 

Live Flight TrackerFlight Track Log ✈ UCA597 ✈ 13-Mar-2014 ✈ KIAD - KBGM

Flight Track Log - Related Links

Times and Time Zones

All times are in EDT time to prevent confusion due to time zone crossing. See the UCA597 flight status page for this flight to view local times or setup timezone preferences in your user account.

Time Position Orientation Groundspeed Altitude Reporting Facility
EDT Latitude Longitude Course Direction KTS MPH feet Rate Location/Type
05:56PM 38.9833 -77.4333 North 142 163 3,200  Level Potomac TRACON
05:57PM 39.0333 -77.4333 360° North 150 173 4,900 1,550 Climbing Potomac TRACON
05:58PM 39.0833 -77.4500 345° North 172 198 6,300 1,700 Climbing Potomac TRACON
05:59PM 39.1167 -77.4500 360° North 142 163 8,300 1,850 Climbing Potomac TRACON
06:00PM 39.1667 -77.4500 360° North 142 163 10,000 1,579 Climbing Potomac TRACON
06:01PM 39.2913 -77.4500 North  Level FlightAware Approximate
06:01PM 39.1833 -77.4500 360° North 142 163 11,300  Level Potomac TRACON
06:02PM 39.2681 -77.4494 360° North 156 180 13,900 1,448 Climbing Washington Center
06:03PM 39.3097 -77.4506 359° North 156 180 15,500 1,059 Climbing Washington Center
06:04PM 39.3533 -77.4517 359° North 156 180 16,000 356 Climbing Washington Center
06:05PM 39.4075 -77.4531 359° North 170 196 16,200 836 Climbing Washington Center
06:06PM 39.4617 -77.4544 359° North 185 213 17,700 1,279 Climbing Washington Center
06:07PM 39.5139 -77.4558 359° North 185 213 18,800 650 Climbing Washington Center
06:08PM 39.5681 -77.4569 359° North 185 213 19,000 82 Climbing Washington Center
06:10PM 39.6594 -77.4536 North 208 239 19,000  Level New York Center
06:11PM 39.7178 -77.4539 360° North 229 264 19,000  Level New York Center
06:12PM 39.7864 -77.4550 359° North 229 264 19,000  Level New York Center
06:13PM 39.8431 -77.4522 North 229 264 19,000  Level New York Center
06:14PM 39.9117 -77.4533 359° North 229 264 19,000  Level New York Center
06:15PM 39.9703 -77.4508 North 229 264 19,000  Level New York Center
06:16PM 40.0392 -77.4494 North 229 264 19,000  Level New York Center
06:17PM 40.0936 -77.4464 North 224 258 19,000  Level New York Center
06:18PM 40.1597 -77.4203 17° North 219 252 19,000  Level New York Center
06:19PM 40.2136 -77.3844 27° Northeast 230 265 19,000  Level New York Center
06:20PM 40.2808 -77.3419 26° Northeast 235 270 19,000  Level New York Center
06:21PM 40.3331 -77.3033 29° Northeast 241 277 19,000  Level New York Center
06:22PM 40.3978 -77.2603 27° Northeast 236 272 19,000  Level New York Center
06:23PM 40.4542 -77.2219 27° Northeast 231 266 19,000 -153 Level New York Center
06:24PM 40.5144 -77.1839 26° Northeast 231 266 18,700 -595 Descending New York Center
06:25PM 40.5753 -77.1403 29° Northeast 239 275 17,800 -843 Descending New York Center
06:26PM 40.6381 -77.0969 28° Northeast 244 281 17,000 -400 Descending New York Center
06:27PM 40.6964 -77.0586 26° Northeast 244 281 17,000  Level New York Center
06:28PM 40.7528 -77.0172 29° Northeast 239 275 17,000  Level New York Center
06:29PM 40.8089 -76.9811 26° Northeast 229 264 17,000  Level New York Center
06:30PM 40.8631 -76.9422 28° Northeast 229 264 17,000  Level New York Center
06:31PM 40.9172 -76.9031 29° Northeast 229 264 17,000  Level New York Center
06:32PM 40.9733 -76.8642 28° Northeast 229 264 17,000  Level New York Center
06:33PM 41.0253 -76.8275 28° Northeast 224 258 17,000  Level New York Center
06:34PM 41.0794 -76.7883 29° Northeast 219 252 17,000 50 Level New York Center
06:35PM 41.1333 -76.7517 27° Northeast 219 252 17,100 50 Climbing New York Center
06:36PM 41.1872 -76.7125 29° Northeast 219 252 17,100  Level New York Center
06:37PM 41.2411 -76.6758 27° Northeast 219 252 17,100  Level New York Center
06:38PM 41.2953 -76.6364 29° Northeast 219 252 17,100 -600 Level New York Center
06:39PM 41.3514 -76.5969 28° Northeast 219 252 15,900 -1,438 Descending New York Center
06:40PM 41.4031 -76.5600 28° Northeast 224 258 14,200 -1,780 Descending New York Center
06:41PM 41.4614 -76.5206 27° Northeast 230 265 12,400 -1,850 Descending New York Center
06:42PM 41.5239 -76.4733 29° Northeast 230 265 10,500 -1,623 Descending New York Center
06:43PM 41.5822 -76.4339 27° Northeast 230 265 9,100 -712 Descending New York Center
06:44PM 41.6381 -76.3969 26° Northeast 230 265 9,100  Level New York Center
06:45PM 41.6856 -76.3594 31° Northeast 230 265 9,100 -300 Level New York Center
06:46PM 41.7417 -76.3225 26° Northeast 230 265 8,500 -1,100 Descending New York Center
06:47PM 41.8042 -76.2747 30° Northeast 230 265 6,900 -1,388 Descending New York Center
06:48PM 41.8581 -76.2375 27° Northeast 224 258 5,700 -1,250 Descending New York Center
06:49PM 41.9139 -76.1975 28° Northeast 229 264 4,400 -900 Descending New York Center
06:50PM 41.9656 -76.1625 27° Northeast 234 269 3,900 -250 Descending New York Center
06:51PM 42.0183 -76.0972 43° Northeast 229 264 3,900 -149 Level New York Center
06:52PM 42.0561 -76.0414 48° Northeast 229 264 3,600 -356 Descending New York Center
06:53PM 42.0983 -75.9833 46° Northeast 229 264 3,200 -450 Descending New York Center
06:54PM 42.1331 -75.9525 33° Northeast 188 216 2,700 -393 Descending New York Center
06:55PM 42.1647 -75.9439 11° North 153 176 2,400 -407 Descending New York Center
06:56PM 42.1886 -75.9653 326° Northwest 97 112 1,900 3,356 Descending New York Center
06:57PM 42.2181 -75.9564 13° North 97 112 9,000 7,100 Climbing New York Center